Location: Edmonton
(53.5500°N, 113.5000°W)
Time: 06:05:48
(UTC-06:00)

Daily predictions for brighter satellites

Satellite Brightness Start Highest point End
(mag) Time Altitude Azimuth Time Altitude Azimuth Time Altitude Azimuth
Cosmos 1607 4.2 19:30:27 10° SW 19:36:37 75° NW 19:42:49 10° NE
Cosmos 1943 Rocket 3.0 19:33:07 10° NNW 19:38:14 33° NE 19:43:17 10° ESE
Cosmos 1420 Rocket 4.0 19:34:02 10° NNW 19:39:22 78° ENE 19:44:42 10° SSE
COSMOS 2455 3.9 19:33:45 10° WSW 19:39:32 46° NW 19:45:21 10° NE
Cosmos 1408 Rocket 3.5 19:35:28 10° N 19:39:51 78° ENE 19:44:10 10° SSE
Cosmos 1500 Rocket 4.3 19:37:18 10° N 19:41:22 34° ENE 19:45:26 10° SE
SKYMED 2 3.6 19:38:34 10° NNE 19:42:53 60° ESE 19:47:11 10° S
H-2A R/B 4.1 19:42:59 10° ESE 19:45:53 21° ENE 19:48:47 10° NNE
Cosmos 2369 Rocket 2.3 19:44:35 10° NNW 19:50:15 65° NE 19:55:53 10° SE
Cosmos 1805 3.7 19:46:49 10° SSE 19:50:31 41° E 19:54:15 10° NNE
Helios 1A 3.4 19:46:43 10° SE 19:50:44 44° ENE 19:54:47 10° N
NOSS 3-2 (C) 3.7 19:45:06 10° SSW 19:51:09 57° SE 19:57:50 10° NE
FREGAT/IRIS 2.7 19:48:11 10° SSE 19:51:14 59° ENE 19:54:18 10° N
Cosmos 1464 Rocket 3.9 19:52:38 10° S 19:58:49 74° E 20:04:59 10° NNE
Cosmos 1943 4.3 19:54:39 10° SSE 19:58:50 22° ESE 20:03:03 10° NE
Cosmos 2034 Rocket 4.1 19:53:38 10° S 19:59:48 60° E 20:06:04 10° NNE
Spot 2 Rocket 3.5 19:55:34 10° SSE 20:00:33 66° ENE 20:05:34 10° NNW
HJ-1C 3.5 19:58:36 10° SSE 20:01:55 56° ENE 20:05:15 10° N
Cosmos 1674 2.9 19:59:57 10° N 20:03:46 52° ENE 20:07:34 10° SSE
Cosmos 1733 4.4 20:01:31 10° SE 20:04:30 22° E 20:07:31 10° NE
Cosmos 2263 4.3 19:58:45 10° NNW 20:04:31 63° NE 20:10:14 10° SE
Cosmos 1603 3.9 20:01:24 10° S 20:06:54 49° ESE 20:12:26 10° NE
Helios 1B rocket 3.1 20:05:24 10° NNE 20:09:07 32° E 20:12:48 10° SSE
Cosmos 1953 2.2 20:06:44 10° S 20:10:41 67° E 20:14:39 10° NNE
Cosmos 1743 Rocket 3.5 20:07:04 10° N 20:11:32 81° ENE 20:15:57 10° SSE
Envisat 4.4 20:08:51 13° E 20:11:53 21° NE 20:15:35 10° N
Cosmos 1269 Rocket 4.3 20:07:55 10° S 20:12:55 45° ESE 20:17:56 10° NE
CZ-4B DEB 3.3 20:13:14 10° SE 20:16:19 40° ENE 20:19:24 10° N
Cosmos 1470 3.4 20:13:37 10° SSE 20:17:07 33° E 20:20:39 10° NNE
USA 215 4.4 20:13:01 12° E 20:17:10 20° SE 20:21:47 10° S
Spot 1 4.2 20:12:38 10° SSE 20:17:11 84° WSW 20:21:30 10° NNW
CZ-4C R/B 3.1 20:15:22 10° WSW 20:20:57 54° NNW 20:27:24 10° NE
Lacrosse 4 Rocket 4.0 20:20:35 10° NNW 20:22:43 13° N 20:24:50 10° NNE
Resurs 1-3 3.5 20:18:46 10° SSE 20:23:09 77° ENE 20:27:33 10° NNW
Cosmos 1544 3.1 20:20:02 10° S 20:23:44 64° E 20:27:28 10° NNE
Sich 1 4.4 20:20:45 10° NNE 20:24:07 21° ENE 20:25:36 18° E
ATLAS 5 CENTAUR R/B 1.9 20:21:46 10° SW 20:26:41 80° SE 20:32:09 10° NE
Cosmos 2333 Rocket 3.9 20:22:19 10° WSW 20:27:33 34° NW 20:32:47 10° NNE
USA 186 2.2 20:27:30 25° ENE 20:27:35 26° ENE 20:29:46 10° N
Cosmos 2058 3.5 20:25:31 10° N 20:29:21 36° ENE 20:32:01 17° SE
COSMO-SKYMED 1 3.5 20:26:42 10° N 20:30:57 52° WNW 20:35:10 10° SW
Cosmos 1626 4.1 20:29:35 10° NNE 20:31:34 14° ENE 20:31:34 14° ENE
Resurs 01 Rocket 1.9 20:29:30 10° S 20:33:57 70° WSW 20:38:24 10° NNW
ATLAS CENTAUR R/B 4.3 20:27:51 10° SW 20:34:18 69° SE 20:56:10 10° ENE
ATLAS 3B R/B 3.8 20:27:39 10° W 20:34:48 45° NNW 20:41:37 10° NE
Cosmos 1656 Rocket 4.2 20:33:20 10° NNW 20:38:28 40° NE 20:41:31 22° ESE
ERS-1 Rocket 3.7 20:36:04 20° ESE 20:38:42 33° ENE 20:43:10 10° N
Cosmos 2237 Rocket 3.9 20:35:05 10° WSW 20:40:10 32° NW 20:45:15 10° NNE
Meteor 1-29 3.0 20:38:11 10° NNE 20:41:39 53° ESE 20:45:04 10° S
Meteor 2-12 Rocket 4.5 20:35:32 10° S 20:41:42 86° W 20:47:54 10° N
BREEZE-M DEB (TANK) 4.4 20:29:10 10° W 20:43:30 48° SSW 20:46:53 20° SE
Cosmos 2151 2.9 20:39:25 10° N 20:43:38 69° ENE 20:47:52 10° SSE
ALOS 2.2 20:39:16 10° SSE 20:43:57 87° ENE 20:48:39 10° NNW
ASTEX 1 3.3 20:41:49 10° N 20:46:43 64° E 20:51:34 10° S
GP-B 3.2 20:44:02 10° N 20:48:24 52° E 20:52:44 10° SSE
Cosmos 1110 Rocket 4.0 20:44:16 10° NNW 20:49:36 87° WSW 20:54:36 12° SSE
Cosmos 1805 Rocket 3.8 20:49:12 10° N 20:53:33 50° ENE 20:55:39 27° SE
ISS -2.1 20:50:55 10° SSW 20:53:26 26° SSE 20:53:26 26° SSE
Cosmos-2242 3.8 20:49:43 10° SSW 20:54:02 55° WNW 20:58:23 10° N
Cosmos 1437 Rocket 3.5 20:54:52 31° E 20:54:52 31° E 20:58:03 10° NNE
Meteor 1-11 4.2 20:48:50 10° N 20:54:41 74° ENE 21:00:18 11° SSE
Abrixas 4.1 20:54:49 10° SW 20:56:48 22° S 20:56:48 22° S
H-2A R/B 3.4 20:57:27 23° ENE 20:57:56 24° ENE 21:01:33 10° N
CZ-4B DEB 4.4 20:55:54 22° SSE 20:58:07 82° ENE 21:01:44 10° NNW
Meteor 1-28 Rocket 4.4 20:56:07 10° N 20:59:42 44° WNW 21:03:14 10° SW
Cosmos 2221 3.0 20:58:43 32° ESE 20:59:44 37° E 21:03:45 10° NNE
NOSS 3-2 (A) 4.0 20:54:35 10° WSW 21:00:53 66° NW 21:07:55 10° NE
SPOT 5 3.9 21:00:49 24° ENE 21:01:04 24° ENE 21:04:35 10° N
Cosmos 2279 Rocket 4.3 20:55:58 10° SSE 21:01:44 43° E 21:07:33 10° NNE
FENGYUN 3A 3.9 20:57:49 10° S 21:03:11 71° WSW 21:08:38 10° NNW
SL-16 R/B 3.5 20:57:52 10° WSW 21:03:14 40° NW 21:08:37 10° NNE
Cosmos 1092 Rocket 4.4 20:58:01 10° NNW 21:04:10 65° W 21:10:14 10° S
Cosmos 1633 Rocket 3.5 21:00:21 10° N 21:04:29 40° ENE 21:05:11 37° E
Cosmos 1328 4.2 21:05:26 10° NNW 21:09:23 64° W 21:13:02 12° S
SL-14 R/B 3.2 21:06:40 10° N 21:10:45 85° E 21:12:44 30° SSE
CZ-2D R/B 3.7 21:08:06 12° S 21:11:37 60° WSW 21:15:29 10° NNW
ERBS 3.8 21:08:31 10° WNW 21:11:40 31° SW 21:12:44 25° S
Cosmos 2266 Rocket 4.5 21:06:01 10° N 21:12:00 41° ENE 21:14:00 32° ESE
Cosmos 482 Debris 4.1 21:11:20 10° W 21:13:30 45° SSW 21:13:30 45° SSW
Cosmos 2026 Rocket 3.9 21:07:49 10° N 21:13:57 88° W 21:20:08 10° S
Cosmos 1428 Rocket 4.4 21:08:57 10° N 21:15:14 69° ENE 21:19:21 23° SSE
Cosmos 494 Rocket 4.3 21:12:53 10° S 21:17:43 41° ESE 21:22:33 10° NE
Cosmos 2251 Rocket 3.6 21:12:43 10° S 21:17:45 50° ESE 21:22:49 10° NE
CZ-4 DEB 3.9 21:19:25 31° NNE 21:19:25 31° NNE 21:21:23 10° N
Cosmos 1655 Rocket 3.9 21:12:46 10° N 21:19:02 89° W 21:24:52 12° S
Cosmos 1980 Rocket 4.2 21:15:58 10° NNW 21:19:37 17° NNE 21:22:13 13° NE
Cosmos 1331 Rocket 4.5 21:14:25 10° NNW 21:19:41 60° WSW 21:23:44 17° S
H-2A R/B 3.6 21:16:34 13° S 21:19:56 50° W 21:23:42 10° NNW
Cosmos 2142 Rocket 4.5 21:15:30 10° S 21:21:53 85° E 21:28:20 10° NNE
Cosmos 1943 Rocket 2.5 21:16:49 10° NW 21:22:25 66° WSW 21:25:55 23° SSE
CENTAUR R/B 2.5 21:16:43 10° SSW 21:22:56 66° SE 21:30:00 10° NE
Cosmos 1842 Rocket 4.4 21:23:32 10° SSW 21:27:46 51° WNW 21:32:04 10° N
Cosmos 1634 Rocket 4.0 21:21:41 10° S 21:27:56 85° WNW 21:34:10 10° N
Meteor 2-20 4.3 21:22:13 10° N 21:28:25 80° ENE 21:31:59 27° SSE
Meteor 2-20 Rocket 4.4 21:23:16 10° N 21:29:27 68° ENE 21:32:06 35° SSE
Aureole 3 4.1 21:23:30 10° N 21:29:53 76° ENE 21:31:50 40° SSE
Cosmos 1939 Rocket 2.7 21:31:11 69° ENE 21:31:13 69° ENE 21:35:09 10° N
Cosmos 1666 Rocket 3.4 21:28:34 10° N 21:33:03 84° E 21:34:00 55° SSE
YAOGAN 11 3.9 21:32:37 60° SSE 21:33:22 82° ENE 21:37:41 10° NNW
Cosmos 2369 Rocket 4.0 21:29:07 10° NW 21:33:54 29° WSW 21:38:40 10° SSW
Cosmos 1302 Rocket 4.1 21:29:06 10° NNW 21:34:18 72° WSW 21:36:31 35° S
YAOGAN 6 4.3 21:36:54 24° NNE 21:36:54 24° NNE 21:38:43 10° N
SJ-11-01 4.3 21:39:10 43° S 21:40:43 79° WSW 21:45:27 10° NNW
NOSS 3-2 (C) 4.3 21:35:58 10° WSW 21:42:14 55° NNW 21:49:13 10° NE
Cosmos 1943 3.2 21:36:38 10° SW 21:42:17 81° WNW 21:47:57 10° NNE
Cosmos 1992 Rocket 4.1 21:38:31 10° NNW 21:43:42 55° ENE 21:44:08 53° ENE
Helios 1B rocket 4.1 21:40:43 10° N 21:44:27 34° WNW 21:48:12 10° SW
Terra 3.7 21:46:05 18° NE 21:46:05 18° NE 21:48:27 10° N
Cosmos 1933 Rocket 4.2 21:41:51 10° N 21:45:25 44° NE 21:45:25 44° NE
Envisat 2.9 21:49:04 52° S 21:50:20 85° WSW 21:55:28 10° NNW
Cosmos 158 Rocket 4.2 21:46:14 10° SW 21:51:03 62° WNW 21:55:58 10° NNE
SL-16 R/B 4.3 21:51:14 10° NNW 21:54:34 15° NNE 21:57:03 12° NE
Cosmos 1703 3.6 21:51:25 10° NNW 21:55:04 63° WNW 21:55:04 63° WNW
Cosmos 1470 Rocket 4.1 21:51:01 10° N 21:54:22 48° NNE 21:54:22 48° NNE
Gbstr 26 Del rocket 3.9 21:54:24 10° SW 21:58:06 45° SSW 21:58:06 45° SSW
USA 215 3.2 22:00:26 54° ESE 22:01:12 57° SE 22:07:36 10° SW
Sich 1 3.5 21:57:54 10° NNW 22:02:13 58° W 22:02:37 55° WSW
BREEZE-M DEB (TANK) 3.8 21:54:27 10° WSW 22:02:52 58° S 22:02:54 58° S
Lacrosse 4 Rocket 3.4 21:59:46 10° NNW 22:03:08 20° NNE 22:03:09 20° NNE
Cosmos 1626 3.4 22:03:48 10° NNW 22:06:16 39° NNW 22:06:16 39° NNW
CZ-4C R/B 3.8 22:05:12 10° WNW 22:10:46 35° N 22:14:59 19° NE
ATLAS 5 CENTAUR R/B 3.3 22:07:05 10° W 22:11:54 39° NNW 22:15:37 18° NE
Cosmos 2322 Rocket 4.2 22:12:36 10° NNW 22:16:23 18° NNE 22:17:53 16° NE
MetOp-A 4.0 22:16:23 87° S 22:16:28 89° WSW 22:21:52 10° NNW
Nadezhda 2 Rocket 4.3 22:11:01 10° N 22:17:12 71° ENE 22:17:19 71° E
ERS-1 Rocket 3.8 22:16:05 38° SW 22:17:21 47° W 22:22:14 10° NNW
H-2A R/B 3.1 22:20:17 35° NNE 22:20:17 35° NNE 22:23:55 10° N
Cosmos 2278 3.9 22:13:55 10° NNW 22:19:22 60° NE 22:19:22 60° NE
USA 81 4.2 22:22:39 66° NNE 22:22:39 66° NNE 22:27:13 10° N
Cosmos 1656 Rocket 4.2 22:16:59 10° NW 22:22:11 48° WSW 22:22:55 45° SW
Cosmos 1656 4.4 22:19:34 10° NNW 22:24:08 39° NNE 22:24:08 39° NNE
Cosmos 1697 Rocket 3.7 22:20:10 10° NNW 22:24:59 35° NE 22:24:59 35° NE
ATLAS 3B R/B 3.9 22:20:22 10° WNW 22:27:08 37° N 22:30:12 26° NE
ARGOS 3.3 22:32:55 68° N 22:32:55 68° N 22:37:42 10° NNW
H-2A R/B 3.1 22:34:35 47° NW 22:34:35 47° NW 22:38:07 10° NNW
Cosmos 2221 4.3 22:35:32 21° WSW 22:37:25 29° WNW 22:41:14 10° N
SPOT 5 3.8 22:40:04 40° NW 22:40:04 40° NW 22:43:12 10° NNW
SPOT 1/Viking Rocket 4.0 22:43:40 57° NNW 22:43:40 57° NNW 22:47:47 10° NNW
Cosmos 2369 4.0 22:41:56 10° NNW 22:46:47 64° NNW 22:46:47 64° NNW
Cosmos 2285 Rocket 4.0 22:42:06 10° NNW 22:48:16 79° W 22:48:16 79° W
Cosmos 2360 Rocket 4.3 23:00:06 10° NNW 23:03:45 17° NNE 23:04:49 16° NE
Cosmos 1980 Rocket 3.3 22:59:51 10° NNW 23:03:58 36° NNE 23:03:58 36° NNE
CENTAUR R/B 3.4 23:07:33 10° WSW 23:13:57 52° NNW 23:21:13 10° NE
Terra 3.7 23:24:58 27° NNW 23:24:58 27° NNW 23:27:09 10° NNW
SeaSat 1 4.5 23:32:53 10° NNE 23:34:58 23° N 23:34:58 23° N
SL-16 R/B 3.8 23:35:19 10° NNW 23:38:54 29° N 23:38:54 29° N
Lacrosse 4 Rocket 4.2 23:38:14 10° NW 23:39:29 18° NNW 23:39:29 18° NNW
USA 215 4.5 23:47:50 31° W 23:47:50 31° W 23:51:00 10° WSW
